Weather History for Estevan Point, BC

Change the Weather History Date:

Wednesday, November 21, 2012

  Actual Average Record
Temperature  
Mean Temperature 40 °F -  
Max Temperature 44 °F - - ()
Min Temperature 36 °F - - ()
Degree Days  
Heating Degree Days 25    
Moisture  
Dew Point 40 °F    
Average Humidity 99    
Maximum Humidity 100    
Minimum Humidity 96    
Precipitation  
Precipitation 0.39 in - - ()
Sea Level Pressure  
Sea Level Pressure 29.83 in    
Wind  
Wind Speed 7 mph ()    
Max Wind Speed 12 mph    
Max Gust Speed -    
T = Trace of Precipitation, MM = Missing Value Source: Averaged Metar Reports

Daily Weather History Graph

Daily Weather History Graph

Search for Another Location

Airport:

Trip Planner

Search our weather history database for the weather conditions in past years. The results will help you decide how hot, cold, wet, or windy it might be!

Date:

Astronomy

Nov. 21, 2012 Rise Set
Actual Time 7:47 AM PST 4:36 PM PST
Civil Twilight 7:11 AM PST 5:12 PM PST
Nautical Twilight 6:31 AM PST 5:52 PM PST
Astronomical Twilight 5:53 AM PST 6:29 PM PST
Moon 1:26 PM PST (11/21) 12:39 AM PST (11/21)
Length of Visible Light 10h 01m
Length of Day
8h 49m
Waxing Gibbous, 63% of the Moon is Illuminated
Nov 21
Waxing Gibbous
Nov 28
Full
Dec 6
Last Quarter
Dec 13
New
Dec 19
First Quarter

Hourly Weather History & Observations

Time (PST) Temp. Windchill Dew Point Humidity Pressure Visibility Wind Dir Wind Speed Gust Speed Precip Events Conditions
12:00 AM 39.2 °F 33.6 °F 39.2 °F 100% 29.53 in - NE 8.1 mph - 0.01 in   Unknown
1:00 AM 38 °F - 38 °F 99% 29.52 in - NE 9.2 mph - -  
1:00 AM 37.8 °F 31.3 °F 37.8 °F 100% 29.52 in - NE 9.2 mph - N/A   Unknown
2:00 AM 37.8 °F 30.7 °F 37.8 °F 100% 29.52 in - NE 10.4 mph - N/A   Unknown
3:00 AM 38.1 °F 30.7 °F 38.1 °F 100% 29.53 in - NNE 11.5 mph - N/A   Unknown
4:00 AM 39 °F - 39 °F 98%  in - North 9.2 mph - -  
4:00 AM 38.7 °F 32.4 °F 38.7 °F 100% 29.53 in - North 9.2 mph - N/A   Unknown
5:00 AM 40.1 °F 36.9 °F 40.1 °F 100% 29.58 in - SW 4.6 mph - 0.05 in   Unknown
6:00 AM 38.8 °F 33.8 °F 38.8 °F 100% 29.62 in - East 6.9 mph - 0.31 in   Unknown
7:00 AM 38 °F - 38 °F 99% 29.64 in - NE 6.9 mph - -  
7:00 AM 37.8 °F 32.5 °F 37.8 °F 100% 29.64 in - NE 6.9 mph - 0.03 in   Unknown
8:00 AM 36.3 °F 30.8 °F 36.3 °F 100% 29.67 in - NE 6.9 mph - 0.01 in   Unknown
9:00 AM 37.6 °F 31.6 °F 37.6 °F 100% 29.71 in - ENE 8.1 mph - N/A   Unknown
10:00 AM 40 °F - 40 °F 99% 29.75 in - North 3.5 mph - -  
10:00 AM 39.7 °F 37.6 °F 39.7 °F 100% 29.75 in - North 3.5 mph - N/A   Unknown
11:00 AM 41.0 °F 35.2 °F 41.0 °F 100% 29.79 in - SE 9.2 mph - N/A   Unknown
12:00 PM 42.1 °F 37.7 °F 42.1 °F 100% 29.82 in - East 6.9 mph - 0.01 in   Unknown
1:00 PM 44 °F - 44 °F 97% 29.86 in - ENE 4.6 mph - -  
1:00 PM 43.7 °F 41.1 °F 43.5 °F 99% 29.86 in - ENE 4.6 mph - N/A   Unknown
2:00 PM 43.2 °F 40.5 °F 43.0 °F 99% 29.90 in - East 4.6 mph - N/A   Unknown
3:00 PM 43.9 °F 41.3 °F 43.3 °F 98% 29.94 in - East 4.6 mph - N/A   Unknown
4:00 PM 43 °F - 42 °F 96% 29.99 in - WSW 9.2 mph - -  
4:00 PM 43.2 °F 37.9 °F 42.3 °F 97% 29.99 in - WSW 9.2 mph - 0.02 in   Unknown
5:00 PM 40.3 °F 34.4 °F 40.3 °F 100% 30.02 in - NNE 9.2 mph - N/A   Unknown
6:00 PM 40.5 °F 35.8 °F 40.5 °F 100% 30.05 in - East 6.9 mph - N/A   Unknown
7:00 PM 40 °F - 40 °F 100% 30.09 in - ESE 6.9 mph - -  
7:00 PM 40.1 °F 35.3 °F 40.1 °F 100% 30.09 in - ESE 6.9 mph - N/A   Unknown
8:00 PM 39.9 °F 35.1 °F 39.9 °F 100% 30.12 in - ENE 6.9 mph - 0.02 in   Unknown
9:00 PM 38.8 °F 32.6 °F 38.8 °F 100% 30.14 in - ENE 9.2 mph - 0.03 in   Unknown
10:00 PM 38 °F - 38 °F 100% 30.17 in - ENE 8.1 mph - -  
10:00 PM 37.9 °F 32.1 °F 37.9 °F 100% 30.17 in - ENE 8.1 mph - N/A   Unknown
11:00 PM 38.5 °F 32.7 °F 38.5 °F 100% 30.17 in - ENE 8.1 mph - 0.01 in   Unknown